Weather History for Worcester, MA

Change the Weather History Date:

Sunday, November 3, 2013

  Actual Average Record
Temperature  
Mean Temperature 38 °F 44 °F  
Max Temperature 46 °F 52 °F 73 °F (1982)
Min Temperature 29 °F 37 °F 21 °F (1930)
Degree Days  
Heating Degree Days 27 21  
Month to date heating degree days 45 61  
Since 1 July heating degree days 643 722  
Cooling Degree Days 0 0  
Month to date cooling degree days 0 0  
Year to date cooling degree days 572 471  
Moisture  
Dew Point 25 °F    
Average Humidity 59    
Maximum Humidity 89    
Minimum Humidity 28    
Precipitation  
Precipitation 0.00 in 0.15 in 2.52 in (1951)
Month to date precipitation 0.15 0.44  
Year to date precipitation 37.83 40.41  
Snow  
Snow 0.00 in 0.00 in 0.80 in (1951)
Month to date snowfall 0.0 0.1  
Since 1 July snowfall 0.0 0.3  
Since 1 September snowfall 0.0 0.3  
Snow Depth 0.00 in    
Sea Level Pressure  
Sea Level Pressure 30.08 in    
Wind  
Wind Speed 10 mph (NNW)    
Max Wind Speed 20 mph    
Max Gust Speed 26 mph    
Visibility 10 miles    
Events      
T = Trace of Precipitation, MM = Missing Value Source: NWS Daily Summary

Daily Weather History Graph

Daily Weather History Graph

Search for Another Location

Airport:

Trip Planner

Search our weather history database for the weather conditions in past years. The results will help you decide how hot, cold, wet, or windy it might be!

Date:

Astronomy

Nov. 03, 2013 Rise Set
Actual Time 6:23 AM EST 4:38 PM EST
Civil Twilight 5:54 AM EST 5:07 PM EST
Nautical Twilight 5:20 AM EST 5:40 PM EST
Astronomical Twilight 4:48 AM EST 6:13 PM EST
Moon 6:24 AM EST (11/3) 4:50 PM EST (11/3)
Length of Visible Light 11h 13m
Length of Day
10h 14m
New Moon, 0% of the Moon is Illuminated
Nov 3
New Moon
Nov 10
First Quarter
Nov 17
Full
Nov 25
Last Quarter
Dec 2
New

Hourly Weather History & Observations

Time (EST) Temp. Windchill Dew Point Humidity Pressure Visibility Wind Dir Wind Speed Gust Speed Precip Events Conditions
12:54 AM 46.0 °F 40.6 °F 39.9 °F 79% 29.76 in 10.0 mi NW 11.5 mph - N/A   Mostly Cloudy
1:54 AM 43.0 °F 36.4 °F 39.9 °F 89% 29.80 in 10.0 mi NNW 12.7 mph - N/A   Overcast
1:02 AM 43.0 °F 37.7 °F 39.9 °F 89% 29.79 in 10.0 mi NNW 9.2 mph - N/A   Overcast
1:54 AM 42.1 °F 35.2 °F 37.0 °F 82% 29.81 in 10.0 mi NNW 12.7 mph 25.3 mph N/A   Clear
2:54 AM 41.0 °F 35.8 °F 36.0 °F 82% 29.83 in 10.0 mi North 8.1 mph - N/A   Overcast
3:54 AM 39.0 °F 32.8 °F 34.0 °F 82% 29.89 in 10.0 mi North 9.2 mph - N/A   Overcast
4:54 AM 37.9 °F 31.5 °F 32.0 °F 79% 29.92 in 10.0 mi NNW 9.2 mph - N/A   Overcast
5:54 AM 37.9 °F 30.9 °F 30.9 °F 76% 29.96 in 10.0 mi North 10.4 mph - N/A   Overcast
6:54 AM 37.9 °F 31.5 °F 30.0 °F 73% 29.99 in 10.0 mi North 9.2 mph - N/A   Overcast
7:54 AM 37.0 °F 29.8 °F 28.9 °F 73% 30.04 in 10.0 mi North 10.4 mph - N/A   Overcast
8:54 AM 37.0 °F 28.9 °F 28.0 °F 70% 30.07 in 10.0 mi North 12.7 mph - N/A   Overcast
9:40 AM 37.9 °F 31.5 °F 28.9 °F 70% 30.06 in 10.0 mi NNW 9.2 mph - N/A   Overcast
9:54 AM 37.9 °F 30.9 °F 28.0 °F 68% 30.09 in 10.0 mi North 10.4 mph - N/A   Overcast
10:54 AM 39.9 °F 32.9 °F 28.0 °F 63% 30.11 in 10.0 mi North 11.5 mph - N/A   Overcast
11:31 AM 39.9 °F 33.4 °F 25.0 °F 55% 30.09 in 10.0 mi North 10.4 mph - N/A   Overcast
11:52 AM 41.0 °F 37.1 °F 24.8 °F 53% 30.09 in 10.0 mi NNW 5.8 mph - N/A   Overcast
11:54 AM 41.0 °F 35.2 °F 25.0 °F 53% 30.11 in 10.0 mi NNW 9.2 mph - N/A   Overcast
12:54 PM 43.0 °F 37.2 °F 19.9 °F 40% 30.12 in 10.0 mi NW 10.4 mph - N/A   Overcast
1:54 PM 44.1 °F 41.5 °F 18.0 °F 35% 30.13 in 10.0 mi North 4.6 mph - N/A   Scattered Clouds
2:54 PM 43.0 °F 36.8 °F 16.0 °F 34% 30.16 in 10.0 mi NW 11.5 mph 18.4 mph N/A   Clear
3:54 PM 41.0 °F 35.2 °F 10.9 °F 29% 30.20 in 10.0 mi NNW 9.2 mph - N/A   Clear
4:54 PM 37.9 °F 32.1 °F 12.0 °F 35% 30.23 in 10.0 mi NNW 8.1 mph - N/A   Clear
5:54 PM 37.0 °F 28.9 °F 14.0 °F 39% 30.27 in 10.0 mi North 12.7 mph - N/A   Clear
6:54 PM 35.1 °F 27.9 °F 12.9 °F 40% 30.30 in 10.0 mi North 9.2 mph - N/A   Clear
7:54 PM 33.1 °F 24.9 °F 10.9 °F 40% 30.33 in 10.0 mi NNW 10.4 mph - N/A   Clear
8:54 PM 32.0 °F 24.8 °F 12.9 °F 45% 30.36 in 10.0 mi NNW 8.1 mph - N/A   Clear
9:54 PM 30.0 °F 21.1 °F 14.0 °F 51% 30.39 in 10.0 mi North 10.4 mph - N/A   Clear
10:54 PM 30.0 °F 20.5 °F 14.0 °F 51% 30.40 in 10.0 mi North 11.5 mph - N/A   Clear